User: anonymous   Login
Location: Unspecified
(0.0000°N, 0.0000°E)
Time: 12:10:13
(UTC+00:00)
Language:

SCD-2 - Orbit

View from above orbital plane
View from above orbital plane
View from above satellite
View from above satellite

Ground track
Ground track

The orbit data is extracted from the following two-line orbital elements,

1 25504U 98060A   18287.67183868  .00000235  00000-0  15464-4 0  9996
2 25504  24.9966  46.3458 0017421  76.6033  20.7045 14.44052073 55046
Epoch (UTC): 14 October 2018 16:07:26
Eccentricity: 0.0017421
inclination: 24.9966°
perigee height: 733 km
apogee height: 757 km
right ascension of ascending node: 46.3458°
argument of perigee: 76.6033°
revolutions per day: 14.44052073
mean anomaly at epoch: 20.7045°
orbit number at epoch: 5504

The dashed part of the orbit path shows where the satellite is in the earth's shadow,  

DLR